Location: Newark
(43.0000°N, 1.6781°W)
Time: 00:09:07
(UTC+00:00)

N. Korean satellite - Pass Details

Date: 09 December 2021
Orbit: 447 x 491 km, 97.3° (Epoch: 21 January)

Event Time Altitude Azimuth Distance (km) Brightness Sun altitude
Rises 05:34:55 0° 8° (N) 2,459 10.1 -19.6°
Reaches altitude 10° 05:36:58 10° 5° (N) 1,582 9.1 -19.2°
Maximum altitude 05:40:18 63° 285° (WNW) 506 6.3 -18.6°
Drops below altitude 10° 05:43:38 10° 203° (SSW) 1,574 9.1 -18.1°
Sets 05:45:40 0° 200° (SSW) 2,445 10.1 -17.7°
